Regional Weather Roundup
Issued by NWS Sioux Falls, SD

Home | Current Version | Previous Version | Graphics & Text | Print | Product List | Glossary Off
Versions: 1 2 3 4 5 6 7 8 9 10 11 12 13 14 15 16 17 18 19 20 21 22 23 24 25 26 27 28 29 30 31 32 33 34 35 36 37 38 39 40 41 42 43 44 45 46 47 48 49 50

000
ASUS43 KFSD 231002
RWRFSD

WEATHER ROUNDUP FOR SE SOUTH DAKOTA/SW MINNESOTA/NW IOWA
NATIONAL WEATHER SERVICE SIOUX FALLS SD
500 AM CDT SAT AUG 23 2014

NOTE: "FAIR" INDICATES FEW OR NO CLOUDS BELOW 12,000 FEET WITH NO
SIGNIFICANT WEATHER AND OR OBSTRUCTIONS TO VISIBILITY.


SDZ038>040-050-052>070-231100-
SOUTHEAST SOUTH DAKOTA

CITY           SKY/WX    TMP DP  RH WIND       PRES   REMARKS
CHAMBERLAIN    LGT RAIN  69  68  98 E6        29.88F
HURON          LGT RAIN  71  68  90 E10       29.94R
MADISON        LGT RAIN  68  68 100 SE5       30.01R
MITCHELL       LGT RAIN  71  69  93 NE13      29.91F
SIOUX FALLS    TSTM      71  69  93 N10       29.97F FOG
WINNER         LGT RAIN  69  66  90 NE12G26   29.86F
YANKTON        CLOUDY    70  70 100 E8        29.84F
$$

MNZ071-072-080-081-089-090-097-098-231100-
SOUTHWEST MINNESOTA

CITY           SKY/WX    TMP DP  RH WIND       PRES   REMARKS
FAIRMONT       CLOUDY    61  61 100 MISG      29.98R
JACKSON        CLOUDY    68  64  88 E5        29.99R FOG
LUVERNE        TSTM      72  68  88 SW13      29.99R
MARSHALL       CLOUDY    70  66  88 E7          N/A
MONTEVIDEO     CLOUDY    70  70 100 SE5       30.00S
PIPESTONE      LGT RAIN  70  66  88 E6        29.98R
REDWOOD FALLS  CLOUDY    68  67  96 E3        29.98F FOG
TRACY          CLOUDY    68  67  97 CALM      29.99S FOG
WINDOM         CLOUDY    68  66  94 NE5       29.98S FOG
WORTHINGTON      N/A     68  68 100 NE6       29.99R
$$

IAZ001>003-012>014-020>022-031-032-NEZ013-014-SDZ071-231100-
NORTHWEST IOWA

CITY           SKY/WX    TMP DP  RH WIND       PRES   REMARKS
CHEROKEE       RAIN      68  68 100 N6        29.96F
DENISON        LGT RAIN  70  70 100 CALM      29.95F
ESTHERVILLE    CLOUDY    68  67  96 NE5       29.96R FOG
LE MARS        LGT RAIN  70  68  94 NE9       29.92F
ORANGE CITY    RAIN      70  66  88 N3        29.96F
SHELDON        HVY RAIN  68  68 100 W8G16     29.97R
SIOUX CITY     LGT RAIN  74  68  81 NE8       29.89F
SPENCER        CLOUDY    72  69  90 E7        29.96R THUNDER
STORM LAKE     RAIN      68  68 100 NW9       30.00R
$$

ABBREVIATIONS USED IN REMARKS
   TC - TEMPERATURE IN CELSIUS
  WCI - WIND CHILL INDEX
   HX - HEAT INDEX
  VSB - VISIBILITY



USA.gov is the U.S. government's official web portal to all federal, state and local government web resources and services.